Location: Lewisville
(33.0462°N, 96.9942°W)
Time: 02:44:37
(UTC-06:00)

Envisat - Pass Details

Date: 02 December 2019
Orbit: 764 x 766 km, 98.1° (Epoch: 21 January)

Event Time Altitude Azimuth Distance (km) Brightness Sun altitude
Rises 18:10:13 0° 155° (SSE) 3,217 6.2 -10.4°
Reaches altitude 10° 18:12:33 10° 151° (SSE) 2,295 5.4 -10.8°
Maximum altitude 18:17:29 55° 74° (ENE) 920 3.1 -11.8°
Drops below altitude 10° 18:22:26 10° 358° (N) 2,308 5.3 -12.8°
Sets 18:24:47 0° 354° (N) 3,238 6.1 -13.3°
